ATLAS 5 CENTAUR DEB, 44895

Orbit data source: Space-Track

ATLAS 5 CENTAUR DEB, 44895 is space debris in HEO originally from a launch on Wed, 17 Oct 2018 UTC launched from the Air Force Eastern Test Range (AFETR). Debris objects in space refer to the collection of defunct objects orbiting the Earth. Examples of debris include non-operational satellites, rocket bodies, and fragments generated from explosions, collisions, or faulty payload assembly.

Loading next visibility...
Identifier
44895, 2018-079BJ
Orbit
HEO
Country
Flag of USUS
Related business
Flag of USUnited Launch Alliance/Lockheed Martin (US)
Manufacturer
ULA Decatur
Mission
Spacecraft
Bus & Motor
Unknown
Mass
Unknown
Launch date (UTC)
2018-10-17 (8 years ago)
Launch vehicle
Unknown
Launch site
Air Force Eastern Test Range (AFETR)
Object type
Payload
Rocket body
Debris
Shape & HBR
Unknown shape, 1.1 m
Radar Cross Section
RCS unknown

Expand to show TLE details & history
Last TLE update: 4 days ago

TLE from 4 days ago
0 ATLAS 5 CENTAUR DEB
1 44895U 18079BJ  26123.88995334 -.00000118  00000-0  00000-0 0  9999
2 44895  13.0193  43.8048 4312915 302.0059  23.2327  1.87751489 45480
Epoch: 2026-05-03T21:21Z
TLE epoch observation values (Epoch: 2026-05-03T21:21:31.968Z)
Latitude
Longitude
-138.43615°
Altitude
12,009.066 km
Speed
5.385 km/s
True Right ascension
02h 54m 56s
True Declination
0° 00' 00"
Sunlit
Object was in daylight at epoch
Visualization orbit readout
Latitude
Unknown
Longitude
Unknown
Altitude
Unknown
Speed
Unknown
Apparent Right ascension
Unknown
Apparent Declination
Unknown
Sunlit
N/A
Visualization observer readout
Local Sidereal Time
11:43:22
Azimuth
Unknown
Elevation
Unknown
Doppler factor
Unknown
Orbital elements
Apogee altitude
33,350.699 km
Perigee altitude
9,407.695 km
Semi-major axis
27,757.334 km
Eccentricity
0.43129
Inclination
13.0193°
RAAN
43.8048°
Arg. of periapsis
302.0059°
True anomaly
58.21096°
Mean anomaly
23.2327°
Eccentric anomaly
38.67465°
Mean motion
0.46933 °/min
Orbital period
767.05 mins
BSTAR
0
Loading maneuver chart data...
Computing Atmospheric mass density...

Documentation

Showing up to 5 results
|